Flag for Pakistan Weather past 2 weeks in Peshawar, Pakistan

Now
55 °F

Refreshingly cool.


Feels Like: N/A
Forecast: 38 / 53 °F
Wind: N/A

Location: Peshawar Airport

Current Time: Jan 25, 2015 at 7:32:28 PM

Latest Report: Jan 25, 2015 at 7:00 PM


Visibility: N/A

Pressure: 30.09 "Hg

Humidity: 51%

Dew point: 37 °F

Location of PeshawarLocation

Historic Weather in Peshawar — Graph

°F

Peshawar temperature yesterday

Maximum temperature yesterday: 63 °F (at 3:00 PM)
Minimum temperature yesterday: 46 °F (at 3:00 AM)
Average temperature yesterday: 53 °F

Past Weeks' High & Low Weather Summary

 TemperatureHumidityPressure
High72 °F (Jan 11, 3:00 PM)100% (Jan 21, 6:00 PM)30.27 "Hg (Jan 21, 6:00 PM)
Low41 °F (Jan 11, 8:00 AM)27% (Jan 17, 3:00 PM)29.89 "Hg (Jan 19, 3:00 PM)
Average53 °F67%30.11 "Hg
* Reported Jan 10 6:00 PM — Jan 25 6:00 PM, Peshawar, Weather by CustomWeather, © 2014

Note: Actual official high and low records may vary slightly from our data, if they occured in-between our weather recording intervals... More about our weather records

Advertising

Peshawar weather history for previous 24 hours

 ConditionsComfort  
Time TempWeatherWind HumidityBarometerVisibility
6:00 PM
Jan 25
57 °FPassing clouds.16 mph48%30.09 "Hg2 mi
5:00 PM61 °FRefreshingly cool.N/A45%30.07 "HgN/A
4:00 PM63 °FMild.N/A42%30.07 "HgN/A
3:00 PM64 °FMild.N/A46%30.09 "HgN/A
2:00 PM63 °FMild.N/A49%30.09 "HgN/A
1:00 PM63 °FMild.N/A49%30.12 "HgN/A
12:00 PM63 °FMild.N/A52%30.15 "HgN/A
11:00 AM59 °FRefreshingly cool.N/A55%30.18 "HgN/A
10:00 AM57 °FCool.N/A63%30.15 "HgN/A
9:00 AM48 °FCool.N/A71%30.18 "HgN/A
8:00 AM46 °FCool.N/A82%30.18 "HgN/A
7:00 AM45 °FQuite cool.N/A87%30.15 "HgN/A
6:00 AM45 °FQuite cool.N/A87%30.15 "HgN/A
4:59 AM45 °FQuite cool.N/A87%30.18 "HgN/A
4:00 AM46 °FCool.N/A87%30.15 "HgN/A
3:00 AM46 °FCool.N/A82%30.15 "HgN/A
2:00 AM50 °FCool.N/A76%30.18 "HgN/A
12:00 AM52 °FCool.N/A72%30.18 "HgN/A
11:00 PM
Jan 24
54 °FCool.N/A67%30.18 "HgN/A
10:00 PM52 °FCool.N/A72%30.18 "HgN/A
9:00 PM54 °FCool.N/A67%30.18 "HgN/A
8:00 PM55 °FCool.N/A63%30.15 "HgN/A
7:00 PM55 °FCool.N/A63%30.12 "HgN/A
Weather by CustomWeather, © 2014

See weather overviewHow to use our weather pages